Weather Roundup
Issued by NWS Chicago, IL

Home | Current Version | Previous Version | Graphics & Text | Print | Product List | Glossary On
Versions: 1 2 3 4 5 6 7 8 9 10 11 12 13 14 15 16 17 18 19 20 21 22 23 24 25 26 27 28 29 30 31 32 33 34 35 36 37 38 39 40 41 42 43 44 45 46 47 48 49 50
000
NZUS59 KLOT 302010
HRRLOT

CHICAGO AREA WEATHER ROUNDUP
NATIONAL WEATHER SERVICE CHICAGO/ROMEOVILLE IL
300 PM CDT WED JUL 30 2014

NOTE: "FAIR" INDICATES FEW OR NO CLOUDS BELOW 12,000 FEET WITH NO
SIGNIFICANT WEATHER AND/OR OBSTRUCTIONS TO VISIBILITY.

* THESE STATIONS ARE NOT UNDER NWS QUALITY CONTROL. THEY ALSO MAY NOT
  REPORT WEATHER SUCH AS PRECIPITATION OR FOG.

ILZ005-006-012>014-019>023-302100-
NORTHEAST ILLINOIS

CITY           SKY/WX    TMP DP  RH WIND       PRES   REMARKS
OHARE          PTSUNNY   76  57  51 NE8       30.02R
MIDWAY         PTSUNNY   75  61  61 E12       30.02R
AURORA         PTSUNNY   77  58  51 NW8       30.04S
LANSING*       PTSUNNY   80  52  38 W9        30.01F HX  80
JOLIET*        MOSUNNY   79  55  43 W8        30.04S
WAUKEGAN       MOSUNNY   68  58  70 E9        30.03S
DUPAGE AIRPORT MOSUNNY   80  57  45 W13       30.02F HX  80
WHEELING       PTSUNNY   71  59  65 NE8       30.04R
KANKAKEE*      PTSUNNY   78  62  56 W13       30.04S HX  80
MORRIS*        MOSUNNY   78  60  53 W5        30.03F HX  80
LEWIS AIRPORT* CLOUDY    78  56  46 NW7G16    30.03S
NORTHERLY IS     N/A     67  60  78 NE9         N/A
$$

WIZ051-052-058>065-066-070>072-302100-
SOUTHEAST WISCONSIN

CITY           SKY/WX    TMP DP  RH WIND       PRES   REMARKS
MILWAUKEE      MOSUNNY   68  57  68 E8        30.04F
KENOSHA*       PTSUNNY   73  61  65 NE10      30.04S
RACINE*        SUNNY     70  56  61 NE8       30.06S
BURLINGTON     SUNNY     72  55  56 NW12      30.04S
WAUKESHA       PTSUNNY   72  54  53 W3        30.04F
WEST BEND      MOSUNNY   72  48  43 NW6       30.03S
$$

INZ001>003-010>013-019-020-302100-
NORTHWEST INDIANA

CITY           SKY/WX    TMP DP  RH WIND       PRES   REMARKS
GARY*          MOSUNNY   73  63  68 NE9       30.03S
MICHIGAN CITY* NOT AVBL
RENSSELAER*    NOT AVBL
VALPARAISO     PTSUNNY   76  55  48 W7        30.02F
$$

LMZ740>746-302100-
SOUTHERN LAKE MICHIGAN

STATION/POSITION TIME  SKY/WX   TEMP WIND        PRES    VSBY
                                AIR  DIR/SP/G
                 (UTC)          (F)  (DEG/KT/KT) (MB)    (MI)
HARRISON CRIB    2000            63   40/ 11/ 13   N/A
BURNHAM HARBOR   2000            66   30/  9/ 10   N/A
CALUMET HARBOR   2000            67   20/  8/ 11 1015.8S
BURNS HARBOR     NOT AVBL
MICHIGAN CITY    2000            65   20/ 10/ 11   N/A
$$

ABBREVIATIONS USED IN REMARKS
   TC - TEMPERATURE IN CELSIUS
  WCI - WIND CHILL INDEX
   HX - HEAT INDEX
  VSB - VISIBILITY
$$



USA.gov is the U.S. government's official web portal to all federal, state and local government web resources and services.